TimeCST,TemperatureF,Dew PointF,Humidity,Sea Level PressureIn,VisibilityMPH,Wind Direction,Wind SpeedMPH,Gust SpeedMPH,PrecipitationIn,Events,Conditions,WindDirDegrees,DateUTC
12:16 AM,-11.2,-16.6,77,30.25,10.0,Calm,Calm,-,N/A,,Clear,0,2013-01-01 06:16:00
12:35 AM,-9.4,-16.6,71,30.25,10.0,Calm,Calm,-,N/A,,Clear,0,2013-01-01 06:35:00
12:55 AM,-11.2,-18.4,70,30.25,10.0,Calm,Calm,-,N/A,,Clear,0,2013-01-01 06:55:00
1:16 AM,-14.8,-18.4,84,30.25,10.0,WSW,4.6,-,N/A,,Clear,240,2013-01-01 07:16:00
1:35 AM,-13.0,-18.4,77,30.24,10.0,Calm,Calm,-,N/A,,Clear,0,2013-01-01 07:35:00
1:55 AM,-13.0,-18.4,77,30.25,10.0,Calm,Calm,-,N/A,,Clear,0,2013-01-01 07:55:00
2:15 AM,-13.0,-18.4,77,30.24,10.0,SW,3.5,-,N/A,,Clear,230,2013-01-01 08:15:00
2:35 AM,-13.0,-18.4,77,30.24,10.0,SW,3.5,-,N/A,,Clear,230,2013-01-01 08:35:00
2:55 AM,-13.0,-18.4,77,30.24,10.0,SW,3.5,-,N/A,,Clear,230,2013-01-01 08:55:00
3:15 AM,-14.8,-20.2,77,30.23,10.0,Calm,Calm,-,N/A,,Clear,0,2013-01-01 09:15:00
3:35 AM,-14.8,-22.0,70,30.23,10.0,Calm,Calm,-,N/A,,Clear,0,2013-01-01 09:35:00
4:15 AM,-11.2,-18.4,70,30.23,10.0,Calm,Calm,-,N/A,,Overcast,0,2013-01-01 10:15:00
4:35 AM,-9.4,-16.6,71,30.23,10.0,Calm,Calm,-,N/A,,Overcast,0,2013-01-01 10:35:00
4:55 AM,-9.4,-14.8,77,30.22,10.0,Calm,Calm,-,N/A,,Overcast,0,2013-01-01 10:55:00
5:15 AM,-7.6,-14.8,71,30.23,10.0,Calm,Calm,-,N/A,Snow,Light Snow,0,2013-01-01 11:15:00
5:35 AM,-5.8,-11.2,77,30.22,7.0,Calm,Calm,-,N/A,Snow,Light Snow,0,2013-01-01 11:35:00
5:55 AM,-5.8,-11.2,77,30.22,10.0,Calm,Calm,-,N/A,,Overcast,0,2013-01-01 11:55:00
6:15 AM,-4.0,-9.4,78,30.22,10.0,SE,3.5,-,N/A,Snow,Light Snow,130,2013-01-01 12:15:00
6:35 AM,-4.0,-9.4,78,30.22,10.0,Calm,Calm,-,N/A,Snow,Light Snow,0,2013-01-01 12:35:00
6:56 AM,-2.2,-7.6,78,30.22,10.0,SE,3.5,-,N/A,,Overcast,130,2013-01-01 12:56:00
7:15 AM,-2.2,-7.6,78,30.21,10.0,SE,3.5,-,N/A,,Overcast,130,2013-01-01 13:15:00
7:35 AM,-0.4,-5.8,78,30.21,10.0,SSE,3.5,-,N/A,,Overcast,150,2013-01-01 13:35:00
7:56 AM,-0.4,-5.8,78,30.21,10.0,SSE,3.5,-,N/A,,Overcast,150,2013-01-01 13:56:00
8:15 AM,-0.4,-4.0,85,30.20,10.0,SE,4.6,-,N/A,,Overcast,140,2013-01-01 14:15:00
8:35 AM,1.4,-4.0,78,30.20,7.0,SSE,4.6,-,N/A,,Overcast,150,2013-01-01 14:35:00
9:15 AM,3.2,-2.2,78,30.19,5.0,SSE,4.6,-,N/A,,Haze,150,2013-01-01 15:15:00
9:35 AM,3.2,-0.4,85,30.19,7.0,SSE,4.6,-,N/A,,Overcast,160,2013-01-01 15:35:00
9:56 AM,5.0,-0.4,78,30.19,7.0,SSE,4.6,-,N/A,,Overcast,160,2013-01-01 15:56:00
10:15 AM,5.0,-0.4,78,30.19,10.0,SSE,3.5,-,N/A,,Overcast,160,2013-01-01 16:15:00
10:35 AM,6.8,1.4,79,30.18,10.0,South,3.5,-,N/A,,Overcast,170,2013-01-01 16:35:00
10:55 AM,6.8,1.4,79,30.18,10.0,Calm,Calm,-,N/A,,Overcast,0,2013-01-01 16:55:00
11:15 AM,8.6,1.4,73,30.17,10.0,Calm,Calm,-,N/A,,Overcast,0,2013-01-01 17:15:00
11:36 AM,8.6,3.2,79,30.16,10.0,Calm,Calm,-,N/A,,Overcast,0,2013-01-01 17:36:00
11:55 AM,10.4,3.2,73,30.15,10.0,Calm,Calm,-,N/A,,Overcast,0,2013-01-01 17:55:00
12:15 PM,10.4,6.8,85,30.14,10.0,Calm,Calm,-,N/A,,Overcast,0,2013-01-01 18:15:00
12:36 PM,12.2,6.8,79,30.13,10.0,Calm,Calm,-,N/A,,Overcast,0,2013-01-01 18:36:00
12:55 PM,12.2,6.8,79,30.12,10.0,Calm,Calm,-,N/A,,Overcast,0,2013-01-01 18:55:00
1:15 PM,14.0,8.6,79,30.12,10.0,Calm,Calm,-,N/A,,Overcast,0,2013-01-01 19:15:00
1:36 PM,15.8,10.4,79,30.11,10.0,SSW,3.5,-,N/A,,Overcast,200,2013-01-01 19:36:00
2:15 PM,17.6,10.4,73,30.09,10.0,SSW,4.6,-,N/A,,Overcast,200,2013-01-01 20:15:00
2:35 PM,17.6,12.2,79,30.09,10.0,SSW,8.1,-,N/A,,Overcast,210,2013-01-01 20:35:00
2:55 PM,19.4,14.0,80,30.09,10.0,SW,9.2,-,N/A,,Overcast,220,2013-01-01 20:55:00
3:15 PM,19.4,15.8,86,30.09,10.0,SW,8.1,-,N/A,,Overcast,220,2013-01-01 21:15:00
3:35 PM,19.4,15.8,86,30.09,10.0,SW,11.5,-,N/A,,Overcast,230,2013-01-01 21:35:00
4:15 PM,21.2,15.8,80,30.09,10.0,SW,10.4,-,N/A,,Overcast,230,2013-01-01 22:15:00
4:35 PM,21.2,15.8,80,30.08,10.0,SW,10.4,-,N/A,,Overcast,230,2013-01-01 22:35:00
5:15 PM,21.2,15.8,80,30.07,10.0,SW,13.8,-,N/A,,Overcast,230,2013-01-01 23:15:00
5:35 PM,19.4,15.8,86,30.07,10.0,WSW,11.5,-,N/A,,Overcast,240,2013-01-01 23:35:00
5:55 PM,19.4,15.8,86,30.07,10.0,SW,8.1,-,N/A,,Overcast,230,2013-01-01 23:55:00
6:16 PM,19.4,15.8,86,30.06,10.0,SW,6.9,-,N/A,,Overcast,220,2013-01-02 00:16:00
6:35 PM,19.4,15.8,86,30.05,10.0,SSW,6.9,-,N/A,,Overcast,210,2013-01-02 00:35:00
6:55 PM,19.4,15.8,86,30.05,10.0,SSW,5.8,-,N/A,,Overcast,200,2013-01-02 00:55:00
7:16 PM,19.4,15.8,86,30.04,10.0,SSW,4.6,-,N/A,,Overcast,210,2013-01-02 01:16:00
7:35 PM,19.4,15.8,86,30.04,10.0,SSW,5.8,-,N/A,,Overcast,210,2013-01-02 01:35:00
7:55 PM,19.4,15.8,86,30.03,10.0,SSW,4.6,-,N/A,,Overcast,200,2013-01-02 01:55:00
8:16 PM,19.4,15.8,86,30.03,10.0,SSW,4.6,-,N/A,,Overcast,200,2013-01-02 02:16:00
8:35 PM,19.4,15.8,86,30.02,10.0,Calm,Calm,-,N/A,,Overcast,0,2013-01-02 02:35:00
8:55 PM,19.4,15.8,86,30.02,10.0,SSW,4.6,-,N/A,,Overcast,210,2013-01-02 02:55:00
9:16 PM,19.4,15.8,86,30.01,7.0,SSW,4.6,-,N/A,,Overcast,210,2013-01-02 03:16:00
9:35 PM,19.4,15.8,86,30.00,10.0,SW,9.2,-,N/A,,Overcast,220,2013-01-02 03:35:00
9:55 PM,19.4,15.8,86,30.00,7.0,SW,8.1,-,N/A,,Overcast,220,2013-01-02 03:55:00
10:15 PM,19.4,17.6,93,29.99,7.0,SW,11.5,-,N/A,,Overcast,220,2013-01-02 04:15:00
10:35 PM,19.4,15.8,86,29.98,7.0,SW,9.2,-,N/A,,Overcast,220,2013-01-02 04:35:00
10:55 PM,21.2,17.6,86,29.99,7.0,SW,9.2,-,N/A,,Overcast,230,2013-01-02 04:55:00
11:15 PM,21.2,17.6,86,29.99,7.0,SW,8.1,-,N/A,,Overcast,220,2013-01-02 05:15:00
11:35 PM,21.2,15.8,80,29.99,7.0,SW,11.5,-,N/A,,Overcast,230,2013-01-02 05:35:00
11:55 PM,21.2,15.8,80,29.98,7.0,SW,9.2,-,N/A,,Overcast,220,2013-01-02 05:55:00